Temp_Advection
nan nan nan nan nan nan nan nan nan nan nan nan nan nan nan nan nan nan nan nan nan nan nan nan nan nan nan nan nan nan nan nan nan nan nan nan nan nan nan nan nan nan nan
nan 2 0 -0 1 0 0 2 1 1 0 0 0 1 1 1 1 0 0 1 0 0 0 1 0 0 0 0 0 1 0 0 -0 -0 0 0 0 0 -0 -1 -0 -0 nan
nan 1 0 1 1 1 1 1 1 1 1 1 1 0 0 0 1 0 1 1 1 1 0 0 1 1 1 1 1 1 1 0 -0 -1 -0 -0 -0 0 -1 -1 -0 -0 nan
nan 0 1 1 1 1 0 0 1 1 0 0 1 0 0 0 0 1 1 1 1 1 1 1 1 1 1 1 1 0 0 1 1 -0 -1 -0 -0 -0 -1 -2 -2 -1 nan
nan 0 0 0 0 1 1 1 1 0 0 1 1 1 0 0 0 1 1 0 1 1 1 1 1 1 0 0 0 0 1 1 1 0 0 -0 -1 -0 -1 -1 -2 -3 nan
nan 0 0 0 0 1 1 0 1 1 1 1 1 1 0 0 0 0 0 1 1 1 1 1 1 0 -0 0 1 1 1 1 0 0 0 -0 0 0 -1 -1 -1 -2 nan
nan 0 0 0 0 0 0 1 1 1 1 0 1 0 0 0 0 1 1 1 1 1 1 1 1 0 1 1 1 1 1 1 0 -0 0 0 -0 0 -0 -1 -1 -1 nan
nan -0 0 0 0 0 0 1 1 1 1 1 1 0 0 1 1 1 1 1 1 1 1 1 1 1 1 1 1 1 1 0 1 0 -0 -0 0 0 0 -1 -1 -1 nan
nan -0 0 0 0 0 0 1 1 1 1 0 0 1 1 1 1 2 1 1 1 1 1 1 1 1 1 1 1 1 0 1 1 0 0 0 0 0 0 -0 -0 -0 nan
nan -0 -0 0 0 0 0 0 1 1 0 1 1 1 1 1 2 1 0 1 1 1 1 1 1 1 1 1 1 0 1 1 0 0 0 0 0 0 1 0 0 0 nan
nan -0 -0 0 0 0 0 0 1 1 1 1 1 1 1 1 2 1 0 1 1 1 1 1 1 2 1 1 0 0 1 0 0 0 0 0 0 0 0 0 1 1 nan
nan -0 -0 0 0 0 0 0 1 1 1 1 1 1 1 2 2 1 1 1 1 1 1 1 2 2 1 0 0 0 0 0 0 -0 -0 -0 -0 -0 -0 0 -0 0 nan
nan -0 0 0 0 0 0 0 1 1 1 1 1 1 2 2 2 1 1 1 1 0 1 2 2 1 0 0 1 0 0 0 0 -0 -0 -0 -0 -0 -1 -1 -0 -0 nan
nan -0 0 0 0 0 0 0 0 1 1 1 1 1 1 2 1 0 1 1 -0 1 2 2 1 1 0 1 0 -0 0 0 -0 -0 -0 -0 -0 -1 -0 -0 -1 -0 nan
nan -0 0 0 0 0 0 0 1 1 0 1 1 1 2 1 0 0 1 0 0 2 1 0 1 0 1 0 -0 0 0 0 0 -0 -0 -0 -0 -1 -1 -0 -0 -1 nan
nan 0 0 -0 0 0 0 1 1 1 1 1 1 1 1 1 1 1 1 1 1 1 0 1 1 1 1 -0 -0 0 0 0 -0 0 0 -0 -1 -1 -1 -1 -1 -1 nan
nan 0 -0 -0 -0 0 0 1 1 1 1 1 1 1 1 1 1 0 0 1 1 1 1 1 1 1 0 -0 0 0 0 -0 0 0 -0 -0 -0 -1 -1 -1 -1 -1 nan
nan -0 -0 -0 -0 0 0 1 1 1 1 1 1 1 1 1 0 1 1 0 1 1 1 1 1 -0 -1 0 0 0 0 0 0 0 0 -0 -0 -1 -1 -1 -1 -0 nan
nan 0 0 -0 -0 0 0 0 1 1 1 0 0 0 0 1 1 1 1 1 1 1 1 1 -0 -0 0 0 0 0 0 -0 0 0 0 -0 -0 -0 -1 -1 -0 0 nan
nan -0 -0 -0 0 0 0 0 0 0 0 0 0 0 1 0 1 1 1 1 1 1 0 -0 -0 0 0 0 0 0 -0 -0 -0 -0 -0 -0 -0 -0 -1 -1 -1 0 nan
nan 0 0 0 -0 -0 -0 -0 -0 -0 0 0 1 1 1 1 0 1 1 1 1 1 0 0 0 0 0 0 0 0 -0 -0 -0 -0 -0 -0 -0 -0 -0 -1 -1 -0 nan
nan 0 -0 -0 -0 0 0 0 0 0 1 0 1 1 1 1 1 1 0 0 1 0 0 0 0 0 0 0 -0 -0 -0 -0 -0 -0 -0 -0 -0 -0 -0 -0 -1 -1 nan
nan 0 0 0 0 0 1 1 1 1 0 1 1 1 1 1 1 0 0 0 0 0 0 0 0 0 0 -0 -0 -0 -0 -0 -0 -0 -0 -0 -0 -0 -0 -0 -1 -1 nan
nan 0 0 1 1 1 1 0 1 1 1 0 0 1 1 1 0 0 0 0 0 0 0 0 0 0 -0 -0 -0 -0 -0 -0 -0 -0 -0 0 -0 -0 -0 -0 -0 -1 nan
nan 0 0 0 0 1 1 1 0 1 1 1 1 1 0 0 0 0 0 0 0 0 0 0 0 0 -0 -0 -0 -0 -0 0 -0 -0 -0 0 0 0 -0 -0 -0 -1 nan
nan nan nan nan nan nan nan nan nan nan nan nan nan nan nan nan nan nan nan nan nan nan nan nan nan nan nan nan nan nan nan nan nan nan nan nan nan nan nan nan nan nan nan
Wind_Speed
50 49 54 52 52 52 49 47 45 44 42 43 45 48 50 50 49 47 45 43 41 38 35 31 28 25 23 20 19 18 17 16 18 21 22 20 21 23 24 25 26 28 29
45 48 50 49 48 49 48 48 46 45 42 41 42 46 49 50 50 50 49 46 44 42 37 34 31 28 25 22 20 18 18 18 18 21 23 22 24 24 27 27 28 30 32
38 40 44 47 47 49 49 44 45 44 43 43 41 44 47 49 52 52 50 48 46 43 39 36 32 29 26 22 20 19 19 19 19 21 23 26 27 27 30 30 31 34 35
30 35 39 41 42 43 43 43 42 41 40 41 40 39 44 46 48 51 52 51 48 43 40 37 33 29 25 22 21 19 19 20 20 22 24 26 27 27 31 34 36 37 41
26 32 31 34 36 41 41 42 40 41 40 37 36 38 41 44 46 49 53 51 49 46 42 38 34 30 26 24 23 21 19 20 21 22 24 26 27 28 31 33 38 42 44
18 28 32 27 35 39 43 42 42 41 39 36 37 37 38 41 42 44 47 51 50 47 43 40 36 33 30 27 26 24 22 19 21 22 23 26 27 28 31 33 37 42 49
7 18 26 30 29 34 39 39 39 38 36 37 37 35 35 37 39 41 44 48 49 47 44 42 38 34 30 28 26 24 24 18 19 21 23 23 27 27 31 34 35 38 42
7 11 18 22 27 30 36 39 40 39 38 35 36 33 35 34 35 37 40 42 44 45 44 41 38 34 30 27 25 23 20 19 19 20 22 22 24 26 28 31 35 38 42
10 11 14 21 26 23 35 38 37 37 37 37 34 32 36 34 34 36 38 38 40 43 42 40 36 32 29 27 25 20 20 19 19 20 20 20 22 23 25 30 32 37 45
12 13 15 16 20 26 25 33 34 35 35 34 33 33 33 33 34 34 35 34 35 41 41 38 34 31 28 27 21 20 21 17 18 18 19 20 21 22 23 25 29 34 36
13 14 15 18 19 18 23 27 30 33 33 35 33 32 32 31 31 32 32 32 33 40 41 39 34 31 27 22 20 20 17 17 17 18 18 20 21 22 23 24 25 29 32
14 15 16 18 19 20 21 23 29 31 32 32 32 32 31 29 29 30 30 28 29 37 40 37 32 27 23 20 20 17 16 15 16 16 18 20 23 24 24 26 27 28 29
16 15 16 17 20 20 20 24 27 29 31 32 33 32 31 29 28 28 29 26 29 35 36 32 28 25 19 19 16 13 14 14 14 16 19 20 22 24 26 29 30 31 34
17 14 16 17 19 21 21 22 25 28 31 32 33 32 31 30 32 31 28 25 30 31 31 32 27 22 19 18 15 15 14 13 14 16 18 19 21 23 26 30 34 35 40
15 14 14 16 19 21 21 21 24 26 28 30 32 33 33 34 35 33 34 32 35 38 36 29 26 25 22 16 16 15 13 13 14 15 17 18 20 24 27 30 33 37 41
13 11 12 15 18 20 22 23 23 24 25 27 27 29 29 30 34 38 35 34 32 32 27 28 28 23 17 15 14 14 13 13 14 15 15 17 20 25 29 31 32 38 40
10 9 10 14 17 19 21 23 23 21 21 20 21 23 24 29 37 40 33 29 28 29 30 27 24 19 16 16 15 13 12 12 13 14 16 17 20 24 28 32 35 40 40
7 6 8 13 15 18 18 20 21 20 20 18 15 19 24 33 38 35 31 29 30 27 25 23 19 16 16 14 12 11 10 11 11 13 14 16 19 25 29 31 36 39 40
4 5 8 9 13 15 16 17 18 20 21 20 23 24 30 35 35 29 33 34 31 27 23 19 16 16 14 11 9 9 8 10 12 13 14 16 20 25 28 30 36 38 39
4 1 5 7 9 12 14 16 19 22 24 28 30 35 32 37 40 35 30 26 24 23 21 18 17 14 10 7 6 8 8 10 12 13 14 17 21 25 29 33 37 41 42
2 1 5 7 12 16 18 25 29 31 33 35 35 41 42 39 34 31 27 23 20 18 18 15 12 10 7 5 5 7 10 11 12 13 14 17 22 27 30 36 36 38 40
2 5 5 13 18 21 28 30 32 35 38 41 40 38 36 30 28 27 25 22 18 16 13 11 8 6 4 3 6 8 11 13 12 12 13 19 23 27 32 37 37 37 39
3 6 10 16 21 26 30 35 39 41 42 38 35 31 26 27 26 25 23 20 17 14 11 8 5 3 2 4 7 10 12 13 11 11 16 21 24 28 32 36 36 35 38
6 11 15 21 23 28 32 35 35 34 32 29 28 28 27 27 25 22 19 17 14 11 8 5 4 3 4 6 8 11 13 13 11 12 19 23 24 29 32 34 33 34 38
8 13 17 20 24 29 32 32 30 28 27 28 28 27 25 23 21 20 17 14 10 8 6 4 3 4 6 8 10 12 13 12 10 14 18 23 27 29 32 31 31 35 36
8 12 14 18 23 27 28 27 26 26 27 25 24 23 21 19 17 15 13 10 8 6 4 3 4 6 8 10 11 13 13 10 13 16 19 24 28 30 31 31 31 35 35
Wind_Direction
228 227 228 230 230 237 240 242 242 244 241 239 235 232 230 227 226 225 227 228 230 231 233 235 237 241 246 250 254 259 262 265 272 281 291 297 301 304 308 310 312 311 314
222 223 227 236 239 241 243 246 245 243 242 246 243 237 234 231 229 228 228 228 230 231 233 234 236 239 244 250 256 261 263 267 274 283 289 295 300 307 309 310 310 314 318
232 230 231 235 236 238 239 243 245 240 240 240 241 240 236 233 231 230 231 231 232 233 235 236 238 240 242 249 256 262 267 274 278 284 291 299 304 310 308 311 315 317 319
210 229 230 234 236 237 238 240 247 244 242 240 243 245 240 237 235 233 232 231 232 233 234 235 238 239 243 247 253 259 266 273 279 285 291 296 302 309 311 316 316 319 321
207 217 238 242 242 240 241 242 244 243 242 243 244 242 241 239 237 234 232 233 233 232 231 233 234 235 236 242 248 252 260 270 276 282 288 294 302 309 314 319 319 322 322
211 217 224 239 239 236 235 236 240 241 242 242 240 241 242 240 238 237 236 234 233 232 232 231 231 232 235 242 248 252 254 261 272 280 286 296 305 311 315 319 321 324 325
219 218 223 229 238 236 238 237 240 241 243 239 239 241 241 243 241 238 236 234 233 232 231 230 230 231 233 238 243 249 256 258 271 281 290 299 303 312 314 317 320 320 318
245 227 221 227 238 240 236 236 236 236 238 240 239 240 238 241 241 239 238 236 233 231 230 230 230 231 233 236 240 247 256 264 274 281 288 296 302 309 313 315 318 315 315
251 238 228 227 231 239 236 231 231 231 232 235 239 238 236 237 238 237 237 237 232 228 226 226 226 228 229 233 238 244 254 261 270 278 288 296 300 306 311 312 317 319 322
254 241 232 226 231 233 240 234 235 233 234 236 237 236 236 236 235 235 236 236 230 222 220 220 221 223 227 231 236 247 251 259 267 276 283 290 298 304 307 311 319 321 326
260 245 236 230 228 231 237 235 235 233 230 232 233 233 231 231 232 231 236 235 229 219 215 213 215 217 218 227 241 245 250 258 269 277 288 296 299 302 310 315 320 322 324
262 245 232 234 226 228 230 236 228 227 226 226 226 226 226 226 225 226 233 233 229 221 213 212 212 211 215 229 236 236 249 262 271 284 291 296 303 312 317 320 322 322 322
261 242 232 231 227 225 227 228 224 221 222 219 219 220 218 216 213 218 228 227 221 217 214 210 203 213 217 217 224 247 254 260 272 283 291 302 311 318 321 322 330 332 330
261 244 229 231 229 223 222 225 227 222 219 219 218 217 214 209 206 206 215 213 214 207 201 197 205 204 201 220 229 242 247 262 275 287 298 306 315 320 329 336 334 337 336
263 246 236 230 232 227 223 225 226 228 231 229 225 224 217 212 212 213 209 202 200 197 192 193 199 206 211 213 224 235 250 265 279 289 299 311 319 328 335 337 338 339 341
262 248 251 247 235 230 225 220 222 226 230 228 230 231 224 225 209 202 203 203 194 195 202 207 204 204 199 207 222 237 250 264 278 292 305 317 328 334 336 339 339 345 342
261 250 255 252 241 233 225 221 217 216 222 228 231 229 223 208 199 199 198 193 200 202 201 196 195 187 194 213 222 233 249 267 283 299 308 322 332 334 337 340 347 346 342
260 249 253 251 244 233 227 223 218 209 197 195 201 203 202 193 192 191 187 186 180 190 192 187 180 186 203 214 225 242 261 277 294 302 314 329 333 337 340 345 348 346 333
270 236 253 250 244 234 225 218 210 200 191 177 171 179 176 175 186 183 179 190 187 179 175 170 182 195 200 213 237 255 277 292 302 311 317 328 336 339 342 345 347 343 337
6 302 267 242 228 217 210 196 191 187 176 169 172 171 172 163 159 165 176 181 176 170 162 174 187 192 196 214 251 280 294 305 309 312 322 334 339 342 346 345 347 341 342
18 173 232 209 198 199 193 178 170 168 165 165 161 162 162 164 164 167 166 164 159 161 170 176 181 190 196 223 265 300 310 315 317 320 331 339 344 346 346 345 340 340 341
269 220 241 197 191 185 171 170 168 163 155 150 147 158 165 165 162 159 154 151 155 164 170 169 180 195 214 278 304 308 315 319 323 331 340 346 347 347 344 338 338 340 343
235 203 185 171 166 162 159 158 157 156 155 152 153 154 160 158 155 150 148 152 159 165 171 173 189 220 274 305 315 317 319 322 328 333 344 348 345 342 335 333 337 339 344
177 170 168 163 162 160 159 158 158 157 156 156 156 155 154 152 148 149 150 151 157 160 170 187 212 262 293 315 320 317 320 320 316 342 351 340 331 329 332 332 337 339 343
166 162 158 158 158 157 157 156 154 154 154 155 153 150 148 148 148 151 157 158 160 172 184 207 258 295 308 317 320 319 320 317 327 341 337 325 326 330 333 334 335 339 339
151 156 157 159 159 157 154 150 150 151 150 148 147 146 148 150 150 150 151 159 170 180 211 242 278 299 309 316 324 322 325 322 338 331 326 322 325 329 334 336 336 337 336
Height
1409 1416 1419 1423 1431 1434 1435 1441 1448 1456 1461 1466 1472 1478 1484 1489 1496 1501 1505 1511 1515 1518 1520 1522 1526 1527 1528 1529 1530 1530 1532 1532 1531 1529 1530 1530 1526 1524 1522 1518 1514 1509 1506
1407 1413 1414 1418 1423 1426 1430 1435 1442 1448 1454 1460 1466 1472 1477 1482 1487 1493 1497 1503 1507 1511 1515 1517 1520 1521 1523 1524 1525 1525 1527 1526 1527 1526 1524 1524 1521 1519 1515 1511 1506 1501 1497
1402 1407 1411 1413 1417 1421 1424 1430 1434 1441 1448 1454 1458 1463 1468 1472 1478 1486 1491 1496 1500 1506 1509 1512 1514 1516 1517 1520 1521 1521 1521 1520 1520 1520 1518 1518 1514 1512 1508 1503 1497 1493 1490
1395 1401 1405 1407 1411 1415 1417 1424 1428 1433 1440 1445 1450 1455 1460 1465 1471 1478 1483 1488 1493 1499 1504 1506 1508 1511 1513 1514 1515 1516 1516 1514 1513 1513 1514 1512 1509 1506 1501 1494 1488 1485 1479
1392 1395 1400 1404 1409 1410 1411 1416 1421 1427 1432 1439 1443 1448 1453 1456 1462 1468 1475 1481 1487 1491 1496 1500 1503 1506 1507 1509 1510 1509 1510 1510 1509 1508 1508 1507 1505 1500 1496 1489 1480 1474 1469
1385 1390 1395 1400 1404 1404 1405 1410 1415 1419 1424 1430 1435 1441 1445 1449 1455 1461 1467 1472 1479 1484 1489 1493 1497 1499 1500 1502 1504 1504 1504 1503 1504 1503 1503 1501 1499 1495 1490 1483 1476 1468 1456
1385 1386 1390 1394 1398 1400 1401 1405 1409 1413 1418 1423 1428 1434 1438 1443 1449 1453 1458 1465 1471 1476 1482 1487 1490 1493 1494 1497 1498 1498 1498 1498 1499 1498 1497 1497 1494 1491 1485 1478 1472 1466 1459
1382 1384 1385 1389 1392 1394 1396 1398 1403 1408 1412 1417 1421 1428 1433 1437 1441 1446 1452 1458 1463 1469 1475 1481 1484 1488 1490 1492 1493 1493 1493 1493 1494 1494 1493 1493 1490 1487 1482 1474 1467 1460 1454
1379 1380 1381 1384 1386 1389 1391 1393 1397 1402 1406 1411 1417 1421 1426 1431 1435 1441 1444 1451 1455 1462 1467 1472 1477 1483 1484 1486 1488 1489 1488 1490 1489 1490 1490 1489 1486 1483 1478 1470 1464 1455 1444
1375 1377 1378 1380 1382 1384 1388 1390 1393 1397 1402 1407 1412 1416 1421 1426 1430 1434 1438 1444 1448 1453 1460 1467 1471 1476 1479 1480 1483 1484 1485 1485 1485 1487 1487 1485 1482 1479 1474 1468 1460 1452 1445
1372 1372 1373 1375 1378 1380 1383 1386 1389 1392 1399 1403 1407 1412 1416 1421 1424 1427 1433 1437 1442 1447 1453 1459 1465 1470 1473 1475 1478 1480 1480 1480 1482 1482 1482 1480 1478 1474 1469 1464 1459 1451 1443
1367 1369 1368 1371 1373 1375 1379 1382 1384 1388 1393 1398 1403 1407 1411 1415 1419 1423 1428 1434 1439 1443 1448 1453 1460 1465 1468 1470 1474 1475 1475 1476 1478 1478 1477 1474 1471 1467 1462 1457 1452 1447 1442
1366 1365 1365 1367 1369 1372 1374 1377 1380 1383 1388 1392 1397 1401 1405 1410 1414 1420 1424 1430 1434 1440 1445 1451 1455 1459 1463 1467 1469 1470 1471 1473 1474 1473 1472 1469 1465 1460 1455 1449 1443 1438 1432
1362 1360 1361 1363 1365 1367 1370 1372 1375 1378 1383 1387 1391 1396 1402 1406 1409 1414 1419 1425 1430 1437 1442 1446 1450 1454 1459 1462 1465 1466 1468 1469 1469 1469 1467 1463 1458 1454 1448 1442 1435 1428 1420
1357 1356 1357 1358 1361 1363 1365 1367 1370 1375 1379 1383 1386 1392 1395 1401 1404 1409 1412 1416 1425 1430 1435 1441 1445 1450 1454 1457 1460 1462 1464 1466 1465 1464 1462 1457 1453 1447 1442 1437 1430 1422 1413
1352 1351 1354 1355 1356 1358 1360 1362 1366 1371 1375 1380 1384 1388 1393 1398 1402 1406 1411 1415 1425 1430 1435 1438 1442 1447 1451 1454 1457 1459 1461 1462 1461 1459 1457 1451 1447 1442 1436 1432 1424 1417 1408
1348 1348 1349 1351 1353 1355 1357 1359 1361 1366 1371 1376 1381 1385 1390 1394 1398 1403 1410 1418 1423 1427 1431 1436 1440 1444 1449 1452 1454 1456 1457 1457 1456 1454 1452 1446 1441 1438 1432 1426 1419 1412 1404
1346 1346 1347 1349 1352 1354 1354 1357 1360 1363 1366 1371 1378 1383 1387 1392 1396 1403 1410 1416 1419 1425 1430 1434 1439 1443 1447 1450 1452 1453 1453 1452 1451 1450 1447 1442 1438 1433 1426 1419 1414 1408 1399
1344 1344 1346 1348 1351 1353 1353 1356 1359 1362 1366 1371 1377 1383 1388 1392 1398 1405 1408 1412 1416 1422 1427 1432 1439 1443 1445 1448 1450 1450 1449 1448 1447 1445 1443 1438 1434 1429 1422 1415 1409 1404 1396
1344 1344 1345 1347 1350 1351 1353 1355 1357 1362 1365 1369 1375 1382 1389 1392 1392 1401 1410 1415 1419 1423 1425 1432 1438 1442 1442 1444 1447 1449 1447 1445 1444 1442 1439 1435 1430 1425 1418 1412 1406 1399 1391
1346 1346 1347 1348 1349 1351 1353 1354 1357 1361 1365 1368 1374 1379 1385 1391 1398 1403 1410 1416 1421 1426 1429 1433 1437 1441 1440 1440 1442 1445 1445 1443 1440 1438 1435 1431 1426 1421 1416 1409 1403 1396 1387
1349 1349 1349 1350 1351 1353 1354 1356 1360 1365 1369 1371 1375 1384 1390 1396 1401 1406 1411 1417 1423 1428 1433 1434 1438 1439 1438 1437 1440 1441 1441 1440 1437 1434 1432 1427 1423 1418 1412 1407 1400 1392 1383
1350 1350 1351 1352 1353 1354 1356 1359 1363 1366 1370 1375 1381 1387 1394 1400 1405 1408 1412 1418 1424 1428 1433 1435 1438 1437 1435 1435 1436 1437 1437 1436 1433 1431 1428 1422 1418 1413 1408 1403 1396 1387 1380
1354 1354 1354 1355 1356 1357 1360 1364 1369 1374 1378 1383 1388 1393 1398 1402 1407 1411 1415 1419 1425 1429 1433 1435 1436 1436 1435 1433 1433 1435 1433 1432 1430 1428 1424 1419 1415 1409 1404 1398 1392 1384 1377
1358 1358 1359 1360 1361 1363 1366 1369 1374 1378 1383 1388 1392 1396 1401 1405 1409 1414 1418 1422 1426 1429 1431 1432 1433 1433 1432 1431 1431 1432 1430 1427 1427 1424 1420 1417 1413 1406 1399 1392 1386 1380 1373
1363 1363 1364 1366 1367 1370 1373 1376 1379 1384 1388 1394 1398 1402 1406 1410 1413 1417 1420 1423 1426 1428 1430 1430 1430 1429 1430 1430 1429 1428 1426 1425 1422 1420 1417 1412 1407 1401 1394 1387 1382 1377 1369